Regional Weather Roundup
Issued by NWS

Home | Current Version | Previous Version | Graphics & Text | Print | Product List | Glossary Off
Versions: 1 2 3 4 5 6 7 8 9 10 11 12 13 14 15 16 17 18 19 20 21 22 23 24 25 26 27 28 29 30 31 32 33 34 35 36 37 38 39 40 41 42 43 44 45 46 47 48 49 50

000
ASUS43 KDMX 241401
RWRIA

WEATHER ROUNDUP FOR IOWA
NATIONAL WEATHER SERVICE DES MOINES IA
900 AM CDT MON APR 24 2017

NOTE: "FAIR" INDICATES FEW OR NO CLOUDS BELOW 12,000 FEET WITH NO
SIGNIFICANT WEATHER AND/OR OBSTRUCTIONS TO VISIBILITY.

* - THESE STATIONS ARE NOT NWS STATIONS...THUS NOT UNDER NWS
QUALITY CONTROL.  THEY ALSO DO NOT REPORT WEATHER SUCH
AS PRECIPITATION OR FOG.

IAZ001>003-012>014-020>022-031>034-043>046-241500-
   NORTHWEST IOWA

CITY           SKY/WX    TMP DP  RH WIND       PRES   REMARKS
CARROLL *      CLOUDY    59  36  41 S26G32    29.78F
CHEROKEE *     PTSUNNY   56  37  47 S23G33    29.72F
DENISON *      MOSUNNY   57  36  44 S23G31    29.77F
LE MARS *      CLOUDY    59  36  41 S28G36    29.69S
ORANGE CITY *  CLOUDY    55  39  54 S20       29.68F
SHELDON *      MOSUNNY   57  36  44 S25G36    29.68F
SIOUX CITY     CLOUDY    57  38  48 S15G28    29.69F
SPENCER        CLOUDY    57  37  47 S24G31    29.73F
STORM LAKE *   MOSUNNY   55  36  47 S23G33    29.75F
$$

IAZ055>058-069>071-079>083-090>094-241500-
   SOUTHWEST IOWA

CITY           SKY/WX    TMP DP  RH WIND       PRES   REMARKS
ATLANTIC *     SUNNY     59  36  41 S23G32    29.79F
AUDUBON *      CLOUDY    57  36  44 S17G25    29.80F
CLARINDA *     SUNNY     59  39  47 S14G22    29.83F
COUNCIL BLFS * SUNNY     59  36  41 S25G33    29.76F
CRESTON *      MOSUNNY   57  37  47 S18G28    29.85F
HARLAN  *      PTSUNNY   59  36  41 S30       29.79F
LAMONI         CLOUDY    56  37  49 S13       29.88F
RED OAK *      SUNNY     59  37  44 S22G31    29.80F
SHENANDOAH *   SUNNY     59  39  47 S18G26    29.80F
$$

IAZ047>049-059>061-072>074-084-241500-
   CENTRAL IOWA

CITY           SKY/WX    TMP DP  RH WIND       PRES   REMARKS
AMES           CLOUDY    57  40  52 S14       29.85F
ANKENY *       MOSUNNY   59  37  44 S12       29.87F
BOONE *        CLOUDY    59  34  38 S20G26    29.82F
CHARITON *     CLOUDY    57  37  47 S13       29.88F
DES MOINES     CLOUDY    59  37  44 S15       29.87S
GRINNELL*      CLOUDY    56  34  43 S13       29.91F
KNOXVILLE *    CLOUDY    57  36  44 S9        29.88F
MARSHALLTOWN   PTSUNNY   60  35  39 S15       29.87F
NEWTON *       MOSUNNY   59  34  38 S14       29.88F
PELLA *        CLOUDY    58  35  42 S9        29.91F
PERRY *          N/A     56  33  40 S16G22    29.82F
$$

IAZ004>006-015-016-023>025-035-036-241500-
   NORTH CENTRAL IOWA

CITY           SKY/WX    TMP DP  RH WIND       PRES   REMARKS
ALGONA *       CLOUDY    57  37  47 S23G30    29.79F
CLARION *      MOSUNNY   57  36  44 S24       29.82F
ESTHERVILLE    CLOUDY    54  38  54 S21G36    29.75F
FORT DODGE *   CLOUDY    57  34  41 S15G23    29.82S
MASON CITY     MOSUNNY   53  39  59 S12       29.85F
FOREST CITY *    N/A     54  36  50 S17       29.82F
WEBSTER CITY * MOSUNNY   57  36  44 S20       29.80F
IOWA FALLS *     N/A     57  37  47 S14       29.86F
$$

IAZ007>011-017>019-026>030-037>042-050>054-066-241500-
   NORTHEAST IOWA

CITY           SKY/WX    TMP DP  RH WIND       PRES   REMARKS
CEDAR RAPIDS   MOSUNNY   56  37  49 S9        29.94S
CHARLES CITY * CLOUDY    55  34  44 S14       29.87F
CLINTON *      SUNNY     56  35  45 S12       29.99S
DECORAH *      CLOUDY    54  36  50 S9        29.90S
DUBUQUE        MOSUNNY   56  31  38 S13       29.97S
MONTICELLO *   SUNNY     63  30  29 S15G24    29.95S
OELWEIN *      MOSUNNY   57  36  44 SE13      29.91F
WATERLOO       PTSUNNY   59  33  37 S14       29.88F
$$

IAZ064-065-067-068-078-241500-
   EAST CENTRAL IOWA

CITY           SKY/WX    TMP DP  RH WIND       PRES   REMARKS
DAVENPORT      SUNNY     59  29  31 SE15      29.98F
IOWA CITY      MOSUNNY   58  36  43 S13       29.97S
MUSCATINE *    SUNNY     57  36  44 SE10      29.97F
QUAD CITIES    SUNNY     60  33  36 SE7       29.98S
$$

IAZ062-063-075>077-085>089-095>099-241500-
   SOUTHEAST IOWA

CITY           SKY/WX    TMP DP  RH WIND       PRES   REMARKS
BURLINGTON     SUNNY     59  37  44 S7        29.97S
FAIRFIELD *    SUNNY     59  32  36 S13       29.95S
FORT MADISON * SUNNY     59  36  41 S5        29.98S
KEOKUK *       MOSUNNY   59  34  38 S10       29.96F
OSKALOOSA *      N/A     58  34  41 S14       29.92F
OTTUMWA        CLOUDY    59  32  36 S15       29.92F
WASHINGTON *   CLOUDY    61  34  36 S15G22    29.97S
$$

ABBREVIATIONS USED IN REMARKS
   TC - TEMPERATURES IN CELSIUS
  WCI - WIND CHILL INDEX
   HX - HEAT INDEX
  VSB - VISIBILITY
$$





USA.gov is the U.S. government's official web portal to all federal, state and local government web resources and services.